When you browse on this site, cookies collect data to enhance your experience and personalize the content and advertising you see.
Visit our Privacy Policy to learn more. By continuing to use the site, you agree to this use of cookies and data.
  • In Deutschland
  • Länderverzeichnis
  • Für 7 Tage
  • Wassertemperatur
  • Satellitenkarten
  • Wetterkarte
  • Widgets
  • user-avatar
    Anmelden

    Stündliche Wetter Kipungo

    Heute, 25 Mai, Samstag

    Zeit Temperatur Niederschläge Wind Luftdruck Luftfeuchtigkeit
    00:00 +19°C° 0 mm 0 m/S 655 mmHg 57%
    01:00 +19°C° 0 mm 0 m/S 655 mmHg 57%
    02:00 +18°C° 0 mm 0 m/S 654 mmHg 60%
    03:00 +19°C° 0 mm 1 m/S 654 mmHg 63%
    04:00 +18°C° 0 mm 1 m/S 654 mmHg 66%
    05:00 +16°C° 0 mm 1 m/S 654 mmHg 65%
    06:00 +16°C° 0 mm 1 m/S 654 mmHg 64%
    07:00 +16°C° 0 mm 1 m/S 654 mmHg 63%
    08:00 +19°C° 0 mm 2 m/S 655 mmHg 50%
    09:00 +24°C° 0 mm 3 m/S 656 mmHg 37%
    10:00 +27°C° 0 mm 4 m/S 657 mmHg 24%
    11:00 +29°C° 0 mm 4 m/S 657 mmHg 22%
    12:00 +30°C° 0 mm 4 m/S 657 mmHg 19%
    13:00 +33°C° 0 mm 4 m/S 656 mmHg 17%
    14:00 +33°C° 0 mm 3 m/S 656 mmHg 17%
    15:00 +31°C° 0 mm 3 m/S 655 mmHg 17%
    16:00 +31°C° 0 mm 3 m/S 655 mmHg 17%
    17:00 +28°C° 0 mm 2 m/S 654 mmHg 21%
    18:00 +25°C° 0 mm 2 m/S 654 mmHg 26%
    19:00 +22°C° 0 mm 1 m/S 654 mmHg 30%
    20:00 +20°C° 0 mm 1 m/S 654 mmHg 32%
    21:00 +19°C° 0 mm 1 m/S 654 mmHg 33%
    22:00 +17°C° 0 mm 2 m/S 654 mmHg 35%
    23:00 +16°C° 0 mm 1 m/S 654 mmHg 36%

    Morgen, 26 Mai, Sonntag

    Zeit Temperatur Niederschläge Wind Luftdruck Luftfeuchtigkeit
    00:00 +16°C° 0 mm 1 m/S 654 mmHg 38%
    01:00 +15°C° 0 mm 1 m/S 654 mmHg 39%
    02:00 +14°C° 0 mm 1 m/S 654 mmHg 41%
    03:00 +13°C° 0 mm 1 m/S 653 mmHg 44%
    04:00 +12°C° 0 mm 0 m/S 653 mmHg 46%
    05:00 +12°C° 0 mm 0 m/S 653 mmHg 46%
    06:00 +12°C° 0 mm 0 m/S 654 mmHg 47%
    07:00 +12°C° 0 mm 0 m/S 654 mmHg 48%
    08:00 +18°C° 0 mm 1 m/S 655 mmHg 41%
    09:00 +21°C° 0 mm 2 m/S 656 mmHg 34%
    10:00 +25°C° 0 mm 3 m/S 657 mmHg 27%
    11:00 +27°C° 0 mm 3 m/S 656 mmHg 24%
    12:00 +29°C° 0 mm 3 m/S 656 mmHg 21%
    13:00 +31°C° 0 mm 2 m/S 656 mmHg 18%
    14:00 +31°C° 0 mm 2 m/S 655 mmHg 18%
    15:00 +30°C° 0 mm 2 m/S 655 mmHg 17%
    16:00 +30°C° 0 mm 2 m/S 654 mmHg 17%
    17:00 +27°C° 0 mm 1 m/S 654 mmHg 22%
    18:00 +24°C° 0 mm 1 m/S 653 mmHg 27%
    19:00 +21°C° 0 mm 1 m/S 653 mmHg 32%
    20:00 +20°C° 0 mm 1 m/S 653 mmHg 34%
    21:00 +19°C° 0 mm 1 m/S 653 mmHg 37%
    22:00 +18°C° 0 mm 1 m/S 653 mmHg 39%
    23:00 +16°C° 0 mm 1 m/S 653 mmHg 42%

    übermorgen, 27 Mai, Montag

    Zeit Temperatur Niederschläge Wind Luftdruck Luftfeuchtigkeit
    00:00 +15°C° 0 mm 1 m/S 653 mmHg 45%
    01:00 +13°C° 0 mm 0 m/S 652 mmHg 48%
    02:00 +13°C° 0 mm 0 m/S 652 mmHg 51%
    03:00 +12°C° 0 mm 0 m/S 652 mmHg 54%
    04:00 +12°C° 0 mm 0 m/S 652 mmHg 57%
    05:00 +12°C° 0 mm 0 m/S 652 mmHg 57%
    06:00 +12°C° 0 mm 0 m/S 653 mmHg 57%
    07:00 +13°C° 0 mm 0 m/S 653 mmHg 57%
    08:00 +18°C° 0 mm 1 m/S 654 mmHg 48%
    09:00 +21°C° 0 mm 2 m/S 655 mmHg 40%
    10:00 +25°C° 0 mm 3 m/S 656 mmHg 31%
    11:00 +27°C° 0 mm 3 m/S 655 mmHg 27%
    12:00 +29°C° 0 mm 3 m/S 655 mmHg 24%
    13:00 +31°C° 0 mm 2 m/S 655 mmHg 20%
    14:00 +31°C° 0 mm 2 m/S 654 mmHg 20%
    15:00 +31°C° 0 mm 1 m/S 654 mmHg 19%
    16:00 +31°C° 0 mm 1 m/S 653 mmHg 19%
    17:00 +28°C° 0 mm 1 m/S 653 mmHg 23%
    18:00 +24°C° 0 mm 1 m/S 652 mmHg 28%
    19:00 +21°C° 0 mm 1 m/S 652 mmHg 33%
    20:00 +20°C° 0 mm 1 m/S 652 mmHg 35%
    21:00 +20°C° 0 mm 1 m/S 653 mmHg 37%
    22:00 +19°C° 0 mm 1 m/S 653 mmHg 39%
    23:00 +18°C° 0 mm 1 m/S 653 mmHg 41%

    28 Mai, Dienstag

    Zeit Temperatur Niederschläge Wind Luftdruck Luftfeuchtigkeit
    00:00 +16°C° 0 mm 1 m/S 652 mmHg 44%
    01:00 +14°C° 0 mm 0 m/S 652 mmHg 46%
    02:00 +14°C° 0 mm 0 m/S 652 mmHg 47%
    03:00 +13°C° 0 mm 0 m/S 652 mmHg 48%
    04:00 +13°C° 0 mm 0 m/S 652 mmHg 49%
    05:00 +13°C° 0 mm 0 m/S 652 mmHg 49%
    06:00 +14°C° 0 mm 0 m/S 652 mmHg 49%
    07:00 +15°C° 0 mm 1 m/S 653 mmHg 50%
    08:00 +20°C° 0 mm 1 m/S 654 mmHg 42%
    09:00 +23°C° 0 mm 2 m/S 655 mmHg 34%
    10:00 +27°C° 0 mm 2 m/S 656 mmHg 26%
    11:00 +29°C° 0 mm 2 m/S 655 mmHg 24%
    12:00 +30°C° 0 mm 2 m/S 655 mmHg 22%
    13:00 +32°C° 0 mm 2 m/S 654 mmHg 20%
    14:00 +32°C° 0 mm 2 m/S 654 mmHg 20%
    15:00 +31°C° 0 mm 2 m/S 654 mmHg 20%
    16:00 +31°C° 0 mm 1 m/S 653 mmHg 20%
    17:00 +28°C° 0 mm 1 m/S 653 mmHg 24%
    18:00 +26°C° 0 mm 1 m/S 653 mmHg 29%
    19:00 +23°C° 0 mm 1 m/S 653 mmHg 33%
    20:00 +21°C° 0 mm 1 m/S 653 mmHg 36%
    21:00 +20°C° 0 mm 1 m/S 653 mmHg 39%
    22:00 +19°C° 0 mm 1 m/S 653 mmHg 41%
    23:00 +18°C° 0 mm 1 m/S 653 mmHg 44%

    29 Mai, Mittwoch

    Zeit Temperatur Niederschläge Wind Luftdruck Luftfeuchtigkeit
    00:00 +18°C° 0 mm 1 m/S 653 mmHg 46%
    01:00 +16°C° 0 mm 1 m/S 652 mmHg 48%
    02:00 +16°C° 0 mm 1 m/S 652 mmHg 50%
    03:00 +15°C° 0 mm 1 m/S 652 mmHg 53%
    04:00 +13°C° 0 mm 0 m/S 651 mmHg 55%
    05:00 +14°C° 0 mm 0 m/S 652 mmHg 54%
    06:00 +14°C° 0 mm 0 m/S 653 mmHg 53%
    07:00 +15°C° 0 mm 0 m/S 653 mmHg 52%
    08:00 +19°C° 0 mm 0 m/S 654 mmHg 42%
    09:00 +24°C° 0 mm 0 m/S 656 mmHg 32%
    10:00 +29°C° 0 mm 0 m/S 657 mmHg 22%
    11:00 +31°C° 0 mm 1 m/S 657 mmHg 21%
    12:00 +32°C° 0 mm 1 m/S 656 mmHg 20%
    13:00 +34°C° 0 mm 2 m/S 655 mmHg 19%
    14:00 +32°C° 0 mm 2 m/S 655 mmHg 19%
    15:00 +32°C° 0 mm 2 m/S 654 mmHg 19%
    16:00 +31°C° 0 mm 2 m/S 654 mmHg 19%
    17:00 +28°C° 0 mm 2 m/S 654 mmHg 23%
    18:00 +26°C° 0 mm 2 m/S 654 mmHg 27%
    19:00 +23°C° 0 mm 2 m/S 654 mmHg 31%
    20:00 +20°C° 0 mm 2 m/S 653 mmHg 34%
    21:00 +19°C° 0 mm 2 m/S 653 mmHg 36%
    22:00 +18°C° 0 mm 1 m/S 653 mmHg 39%
    23:00 +18°C° 0 mm 1 m/S 653 mmHg 41%

    30 Mai, Donnerstag

    Zeit Temperatur Niederschläge Wind Luftdruck Luftfeuchtigkeit
    00:00 +16°C° 0 mm 1 m/S 653 mmHg 43%
    01:00 +16°C° 0 mm 1 m/S 653 mmHg 45%
    02:00 +15°C° 0 mm 1 m/S 652 mmHg 46%
    03:00 +15°C° 0 mm 1 m/S 652 mmHg 47%
    04:00 +14°C° 0 mm 0 m/S 652 mmHg 48%
    05:00 +14°C° 0 mm 0 m/S 653 mmHg 48%
    06:00 +14°C° 0 mm 0 m/S 653 mmHg 48%
    07:00 +14°C° 0 mm 0 m/S 654 mmHg 48%
    08:00 +20°C° 0 mm 1 m/S 655 mmHg 39%
    09:00 +24°C° 0 mm 1 m/S 656 mmHg 31%
    10:00 +28°C° 0 mm 1 m/S 657 mmHg 22%
    11:00 +30°C° 0 mm 1 m/S 656 mmHg 20%
    12:00 +33°C° 0 mm 1 m/S 656 mmHg 18%
    13:00 +35°C° 0 mm 1 m/S 656 mmHg 16%
    14:00 +34°C° 0 mm 1 m/S 655 mmHg 16%
    15:00 +33°C° 0 mm 1 m/S 654 mmHg 17%
    16:00 +30°C° 0 mm 0 m/S 654 mmHg 17%
    17:00 +29°C° 0 mm 1 m/S 653 mmHg 21%
    18:00 +26°C° 0 mm 1 m/S 653 mmHg 26%
    19:00 +22°C° 0 mm 1 m/S 653 mmHg 30%
    20:00 +21°C° 0 mm 1 m/S 653 mmHg 32%
    21:00 +20°C° 0 mm 1 m/S 653 mmHg 34%
    22:00 +18°C° 0 mm 2 m/S 654 mmHg 35%
    23:00 +19°C° 0 mm 1 m/S 653 mmHg 36%
    Mehr zeigen